• In Belarus
  • List of Countries
  • For 7 days
  • Water Temperature
  • Satellite Maps
  • Weather Map
  • Weather Widgets
  • user-avatar
    Login

    Hourly Weather Lubango

    Today, 25 September, Monday

    Time Temperature Precipitation Wind Pressure Humidity
    00:00 +15°C° 0 mm 1 mps 609 mmHg 76%
    01:00 +14°C° 0 mm 1 mps 609 mmHg 78%
    02:00 +14°C° 0 mm 1 mps 608 mmHg 77%
    03:00 +14°C° 0 mm 1 mps 608 mmHg 77%
    04:00 +13°C° 0 mm 1 mps 608 mmHg 77%
    05:00 +14°C° 0 mm 1 mps 608 mmHg 71%
    06:00 +15°C° 0 mm 0 mps 609 mmHg 65%
    07:00 +16°C° 0 mm 0 mps 610 mmHg 59%
    08:00 +21°C° 0 mm 1 mps 611 mmHg 48%
    09:00 +24°C° 0 mm 1 mps 612 mmHg 38%
    10:00 +27°C° 0 mm 2 mps 614 mmHg 27%
    11:00 +29°C° 0 mm 2 mps 613 mmHg 24%
    12:00 +30°C° 0 mm 2 mps 613 mmHg 21%
    13:00 +31°C° 0 mm 3 mps 613 mmHg 19%
    14:00 +30°C° 0 mm 3 mps 612 mmHg 21%
    15:00 +29°C° 0 mm 3 mps 611 mmHg 24%
    16:00 +28°C° 0 mm 4 mps 611 mmHg 27%
    17:00 +25°C° 0 mm 3 mps 610 mmHg 37%
    18:00 +21°C° 0 mm 3 mps 609 mmHg 48%
    19:00 +18°C° 0 mm 3 mps 608 mmHg 58%
    20:00 +18°C° 0 mm 2 mps 609 mmHg 63%
    21:00 +18°C° 0 mm 1 mps 609 mmHg 67%
    22:00 +16°C° 0 mm 1 mps 609 mmHg 72%
    23:00 +15°C° 0 mm 1 mps 608 mmHg 73%

    Tomorrow, 26 September, Tuesday

    Time Temperature Precipitation Wind Pressure Humidity
    00:00 +15°C° 0 mm 1 mps 608 mmHg 74%
    01:00 +14°C° 0 mm 1 mps 608 mmHg 75%
    02:00 +14°C° 0 mm 1 mps 607 mmHg 75%
    03:00 +14°C° 0 mm 1 mps 607 mmHg 75%
    04:00 +12°C° 0 mm 0 mps 606 mmHg 75%
    05:00 +14°C° 0 mm 0 mps 607 mmHg 68%
    06:00 +15°C° 0 mm 0 mps 608 mmHg 61%
    07:00 +16°C° 0 mm 0 mps 609 mmHg 55%
    08:00 +21°C° 0 mm 1 mps 610 mmHg 44%
    09:00 +24°C° 0 mm 2 mps 611 mmHg 33%
    10:00 +28°C° 0 mm 3 mps 613 mmHg 22%
    11:00 +29°C° 0 mm 3 mps 612 mmHg 20%
    12:00 +30°C° 0 mm 3 mps 612 mmHg 19%
    13:00 +31°C° 0 mm 3 mps 612 mmHg 17%
    14:00 +30°C° 0 mm 3 mps 611 mmHg 19%
    15:00 +29°C° 0 mm 4 mps 610 mmHg 22%
    16:00 +28°C° 0 mm 4 mps 609 mmHg 25%
    17:00 +25°C° 0 mm 3 mps 609 mmHg 34%
    18:00 +21°C° 0 mm 3 mps 608 mmHg 43%
    19:00 +18°C° 0 mm 2 mps 608 mmHg 52%
    20:00 +17°C° 0 mm 2 mps 608 mmHg 57%
    21:00 +16°C° 0 mm 1 mps 608 mmHg 61%
    22:00 +15°C° 0 mm 1 mps 608 mmHg 65%
    23:00 +15°C° 0 mm 1 mps 608 mmHg 66%

    Day after tomorrow, 27 September, Wednesday

    Time Temperature Precipitation Wind Pressure Humidity
    00:00 +14°C° 0 mm 1 mps 607 mmHg 67%
    01:00 +14°C° 0 mm 1 mps 607 mmHg 68%
    02:00 +13°C° 0 mm 1 mps 607 mmHg 68%
    03:00 +12°C° 0 mm 0 mps 607 mmHg 68%
    04:00 +12°C° 0 mm 0 mps 606 mmHg 68%
    05:00 +13°C° 0 mm 0 mps 607 mmHg 60%
    06:00 +15°C° 0 mm 0 mps 608 mmHg 53%
    07:00 +16°C° 0 mm 0 mps 609 mmHg 46%
    08:00 +21°C° 0 mm 1 mps 611 mmHg 37%
    09:00 +24°C° 0 mm 2 mps 612 mmHg 28%
    10:00 +28°C° 0 mm 2 mps 613 mmHg 19%
    11:00 +29°C° 0 mm 3 mps 613 mmHg 17%
    12:00 +30°C° 0 mm 3 mps 612 mmHg 15%
    13:00 +31°C° 0 mm 3 mps 612 mmHg 13%
    14:00 +30°C° 0 mm 4 mps 611 mmHg 16%
    15:00 +29°C° 0 mm 4 mps 611 mmHg 18%
    16:00 +28°C° 0 mm 4 mps 610 mmHg 20%
    17:00 +25°C° 0 mm 4 mps 609 mmHg 30%
    18:00 +21°C° 0 mm 3 mps 609 mmHg 40%
    19:00 +18°C° 0 mm 2 mps 608 mmHg 49%
    20:00 +17°C° 0 mm 2 mps 608 mmHg 54%
    21:00 +16°C° 0 mm 1 mps 608 mmHg 58%
    22:00 +15°C° 0 mm 1 mps 608 mmHg 62%
    23:00 +14°C° 0 mm 1 mps 608 mmHg 63%

    28 September, Thursday

    Time Temperature Precipitation Wind Pressure Humidity
    00:00 +14°C° 0 mm 1 mps 608 mmHg 63%
    01:00 +14°C° 0 mm 1 mps 607 mmHg 64%
    02:00 +13°C° 0 mm 1 mps 607 mmHg 63%
    03:00 +13°C° 0 mm 1 mps 607 mmHg 62%
    04:00 +13°C° 0 mm 1 mps 607 mmHg 61%
    05:00 +14°C° 0 mm 1 mps 608 mmHg 55%
    06:00 +15°C° 0 mm 1 mps 609 mmHg 50%
    07:00 +15°C° 0 mm 0 mps 610 mmHg 44%
    08:00 +21°C° 0 mm 1 mps 611 mmHg 35%
    09:00 +24°C° 0 mm 2 mps 613 mmHg 26%
    10:00 +28°C° 0 mm 3 mps 614 mmHg 18%
    11:00 +29°C° 0 mm 3 mps 614 mmHg 16%
    12:00 +30°C° 0 mm 3 mps 613 mmHg 14%
    13:00 +33°C° 0 mm 3 mps 613 mmHg 13%
    14:00 +32°C° 0 mm 4 mps 612 mmHg 14%
    15:00 +30°C° 0 mm 4 mps 612 mmHg 16%
    16:00 +29°C° 0 mm 4 mps 611 mmHg 18%
    17:00 +26°C° 0 mm 4 mps 610 mmHg 25%
    18:00 +22°C° 0 mm 3 mps 610 mmHg 32%
    19:00 +18°C° 0 mm 2 mps 609 mmHg 39%
    20:00 +17°C° 0 mm 2 mps 609 mmHg 43%
    21:00 +16°C° 0 mm 1 mps 609 mmHg 47%
    22:00 +15°C° 0 mm 1 mps 609 mmHg 51%
    23:00 +14°C° 0 mm 1 mps 608 mmHg 53%

    29 September, Friday

    Time Temperature Precipitation Wind Pressure Humidity
    00:00 +14°C° 0 mm 1 mps 608 mmHg 54%
    01:00 +14°C° 0 mm 1 mps 608 mmHg 55%
    02:00 +13°C° 0 mm 1 mps 607 mmHg 55%
    03:00 +12°C° 0 mm 0 mps 607 mmHg 54%
    04:00 +12°C° 0 mm 0 mps 607 mmHg 54%
    05:00 +15°C° 0 mm 1 mps 608 mmHg 48%
    06:00 +16°C° 0 mm 1 mps 609 mmHg 42%
    07:00 +18°C° 0 mm 1 mps 610 mmHg 35%
    08:00 +22°C° 0 mm 1 mps 611 mmHg 29%
    09:00 +25°C° 0 mm 1 mps 612 mmHg 23%
    10:00 +28°C° 0 mm 2 mps 613 mmHg 17%
    11:00 +29°C° 0 mm 2 mps 613 mmHg 17%
    12:00 +30°C° 0 mm 3 mps 613 mmHg 17%
    13:00 +31°C° 0 mm 3 mps 612 mmHg 16%
    14:00 +30°C° 0 mm 3 mps 612 mmHg 19%
    15:00 +29°C° 0 mm 3 mps 611 mmHg 22%
    16:00 +28°C° 0 mm 4 mps 611 mmHg 25%
    17:00 +25°C° 0 mm 3 mps 610 mmHg 33%
    18:00 +21°C° 0 mm 2 mps 610 mmHg 41%
    19:00 +20°C° 0 mm 1 mps 609 mmHg 49%
    20:00 +19°C° 0 mm 1 mps 609 mmHg 53%
    21:00 +18°C° 0 mm 1 mps 609 mmHg 57%
    22:00 +16°C° 0 mm 1 mps 609 mmHg 61%
    23:00 +16°C° 0.1 mm 1 mps 609 mmHg 63%

    30 September, Saturday

    Time Temperature Precipitation Wind Pressure Humidity
    00:00 +15°C° 0.1 mm 1 mps 608 mmHg 65%
    01:00 +14°C° 0.1 mm 0 mps 608 mmHg 67%
    02:00 +14°C° 0.3 mm 0 mps 608 mmHg 68%
    03:00 +14°C° 0.3 mm 0 mps 608 mmHg 68%
    04:00 +14°C° 0.3 mm 0 mps 608 mmHg 68%
    05:00 +15°C° 0.4 mm 0 mps 609 mmHg 64%
    06:00 +18°C° 0.4 mm 1 mps 609 mmHg 60%
    07:00 +19°C° 0.4 mm 1 mps 610 mmHg 55%
    08:00 +22°C° 0.2 mm 1 mps 611 mmHg 47%
    09:00 +25°C° 0.2 mm 1 mps 612 mmHg 38%
    10:00 +28°C° 0.2 mm 1 mps 613 mmHg 29%
    11:00 +29°C° 0 mm 1 mps 613 mmHg 27%
    12:00 +30°C° 0 mm 2 mps 612 mmHg 25%
    13:00 +31°C° 0 mm 2 mps 612 mmHg 23%
    14:00 +30°C° 0.2 mm 2 mps 611 mmHg 26%
    15:00 +28°C° 0.2 mm 3 mps 610 mmHg 30%
    16:00 +27°C° 0.2 mm 3 mps 610 mmHg 33%
    17:00 +25°C° 0.6 mm 3 mps 610 mmHg 41%
    18:00 +23°C° 0.6 mm 2 mps 609 mmHg 48%
    19:00 +20°C° 0.6 mm 2 mps 609 mmHg 55%
    20:00 +19°C° 0.7 mm 2 mps 609 mmHg 59%
    21:00 +20°C° 0.7 mm 1 mps 610 mmHg 62%
    22:00 +19°C° 0.7 mm 1 mps 610 mmHg 66%
    23:00 +19°C° 0.1 mm 1 mps 610 mmHg 67%
    Show more